www.pogodaiklimat.ru

Погода и климат >> Архив погоды >> Канада >> Cambridge Bay Arpt


ПОГОДА в Cambridge Bay Arpt

  • Прогноз погоды в Cambridge Bay Arpt
  • Монитор погоды в Cambridge Bay Arpt
  • Климат города

АРХИВ ПОГОДЫ в Cambridge Bay Arpt

Время (UTC), дата Ветер
(напр.,м/с)
 
Видим.   Явления Облачность Т
(С)
Тd
(С)
f
(%)
Тe
(С)
Тes
(С)
Комфортность P
(гПа)
Po
(гПа)
Тmin
(С)
Tmax
(С)
R
(мм)
R24
(мм)
S
(см)
12 12.07 С 6 24 км 10/1 1500 м
[Sc Ac As]
+9.5 +7.6 88 +6 +6 1001.9 998.0 +8.8 +19.1
15 12.07 С 6 24 км 10/10 100 м
[]
+11.9 +7.5 74 +9 +9 1003.4 999.5
18 12.07 СВ 8 24 км 9/8 200 м
[Sc Ac As]
+10.6 +7.6 82 +7 +7 1006.5 1002.6 +8.8 +13.2
21 12.07 СВ 8 24 км 9/9 600 м
[]
+12.5 +6.0 65 +10 +10 1009.9 1005.9
00 13.07 СВ 8 24 км 3/1 300 м
[Cu hum Ac As Ci fib]
+12.1 +3.8 57 +9 +10 1012.4 1008.4 +8.8 +13.2
03 13.07 СВ 8 24 км 4/4 300 м
[]
+9.1 +4.2 71 +5 +5 1014.7 1010.7
06 13.07 СВ 6 24 км 3/1 300 м
[Sc Ac As]
+5.6 +2.0 78 +1 +1 1017.1 1013.1 +5.6 +13.2 211
09 13.07 СВ 5 24 км 4/4 300 м
[]
+5.2 +1.2 75 +1 +1 1018.1 1014.1
12 13.07 С 5 24 км 9/9 600 м
[Sc]
+5.9 -0.3 64 +2 +2 1019.7 1015.7 +4.2 +13.2
15 13.07 С 2 24 км 9/9 600 м
[]
+7.2 -1.1 56 +5 +6 1020.2 1016.2
18 13.07 СЗ 3 24 км осадки на расстоянии 9/8 600 м
[Cu Sc Ac As]
+9.0 +1.7 60 +7 +8 1020.5 1016.5 +4.2 +9.2
21 13.07 З 6 24 км 9/9 600 м
[]
+8.9 +2.3 63 +6 +6 1020.8 1016.8
00 14.07 З 6 24 км осадки на расстоянии {ливн. осадки} 5/3 600 м
[Cu Sc Ac trans Ci fib]
+9.4 +1.1 56 +6 +7 1020.4 1016.4 +4.2 +10.8 0.0
03 14.07 З 5 24 км 9/9 1500 м
[]
+7.5 +0.8 62 +4 +4 1020.3 1016.3
06 14.07 З 6 24 км 4/3 1000 м
[Sc Ac trans]
+3.7 +1.2 84 -2 -2 1020.2 1016.2 +3.7 +10.8 190
09 14.07 З 5 24 км 6/6 1000 м
[]
+2.8 +1.1 89 -3 -3 1019.4 1015.4
12 14.07 З 6 24 км 9/1 1000 м
[Sc Ac As Ci fib]
+2.8 +1.1 89 -3 -3 1019.1 1015.1 +2.2 +10.8
15 14.07 З 5 24 км 8/8 1000 м
[]
+5.2 +1.7 78 +1 +1 1018.7 1014.7
18 14.07 З 8 24 км 9/1 600 м
[Cu hum Ac As Cs]
+7.8 +2.1 67 +3 +4 1018.0 1014.0 +2.2 +8.3
21 14.07 З 9 24 км 9/9 600 м
[]
+8.2 +3.2 71 +3 +3 1017.4 1013.4
00 15.07 З 7 24 км 3/1 600 м
[Cu hum Ac lent Ci fib]
+7.7 +2.6 70 +3 +4 1016.8 1012.8 +2.2 +9.0
03 15.07 ЮЗ 5 24 км ясно +6.1 +2.0 75 +2 +2 1016.5 1012.5
06 15.07 З 3 24 км ясно +3.4 +1.4 87 -1 -1 1016.6 1012.6 +2.2 +9.0 231
09 15.07 З 3 24 км ясно +3.9 +2.2 89 0 0 1016.6 1012.6
12 15.07 З 3 24 км ясно +6.1 +3.5 83 +3 +5 1017.2 1013.2 +2.6 +9.0
15 15.07 СВ 3 24 км ясно +13.7 +8.0 68 +13 +17 1017.4 1013.4
18 15.07 ЮЗ 3 24 км ясно +14.5 +7.2 62 +14 +23 1017.2 1013.2 +2.6 +15.4
21 15.07 СВ 2 24 км 3/0
[]
+17.8 +5.0 43 +18 +26 1017.3 1013.3
00 16.07 З 3 24 км 5/1 1000 м
[Sc Ac trans Ci fib]
+16.7 +5.3 47 +17 +19 1016.5 1012.5 +2.6 +18.1
03 16.07 ЮЗ 3 24 км 5/0
[]
+11.2 +5.0 66 +10 +10 1015.7 1011.7
06 16.07 ЮВ 4 24 км 6/0
[Ac trans Ci fib]
+9.2 +7.0 86 +6 +6 1015.3 1011.3 +2.6 +18.1
09 16.07 ЮВ 3 24 км 1/0
[]
+6.3 +5.4 94 +3 +3 1014.6 1010.6
12 16.07 ЮВ 5 24 км ясно +7.5 +5.3 86 +4 +4 1013.6 1009.6 +5.3 +18.1
15 16.07 ЮВ 9 24 км 6/0 2000 м
[]
+10.8 +4.1 63 +7 +7 1011.7 1007.7
18 16.07 ЮВ 9 24 км 9/3 1000 м
[Sc Ac As Ci fib]
+11.9 +4.5 60 +9 +9 1010.2 1006.2 +5.3 +12.8
21 16.07 ЮВ 10 24 км 6/6 1000 м
[]
+14.4 +5.2 54 +12 +12 1008.9 1004.9
00 17.07 ЮВ 10 24 км 5/1 1000 м
[Sc Ac As]
+12.7 +6.1 64 +9 +10 1007.1 1003.2 +5.3 +15.2
03 17.07 ЮВ 9 24 км 3/0 2000 м
[]
+10.7 +5.6 71 +7 +7 1005.4 1001.5
06 17.07 ЮВ 6 24 км ясно +8.5 +4.8 78 +5 +5 1004.1 1000.2 +5.3 +15.2 221
09 17.07 В 2 30 км 3/0 2000 м
[]
+7.0 +4.4 84 +5 +5 1002.9 999.0
12 17.07 В 3 24 км 6/0 2000 м
[Ac As Ci fib]
+10.4 +6.5 77 +9 +10 1002.1 998.2 +6.1 +15.2
15 17.07 Ю 2 24 км 4/4 1500 м
[]
+15.6 +9.0 65 +16 +19 1001.8 997.9
18 17.07 ЮЗ 3 24 км 8/5 1500 м
[Sc Ac trans Ci fib]
+15.7 +9.3 66 +15 +18 1001.8 997.9 +6.1 +18.2
21 17.07 З 3 24 км 8/8 1000 м
[]
+14.7 +9.3 70 +14 +15 1002.4 998.5
00 18.07 Ю 2 24 км 8/0 2000 м
[Ac As Ci fib]
+15.7 +10.6 72 +16 +18 1003.4 999.5 +6.1 +18.2
03 18.07 З 3 24 км 6/0 2000 м
[]
+15.2 +10.3 73 +15 +15 1004.3 1000.4
06 18.07 ЮЗ 3 24 км 8/1 600 м
[Sc Ac As Ci fib]
+9.7 +8.7 93 +8 +8 1005.3 1001.4 +6.1 +18.2 7
09 18.07 ЮЗ 1 4000 м 8/8 50 м
[]
+6.5 +6.4 99 +5 +5 1007.0 1003.1
12 18.07 С 6 24 км осадки на расстоянии {туман} 8/8 50 м
[Sc]
+13.2 +10.4 83 +11 +11 1008.6 1004.7 +5.4 +18.2
15 18.07 СВ 6 24 км 6/6 1000 м
[]
+15.4 +9.5 68 +14 +15 1010.6 1006.7
18 18.07 СЗ 4 24 км 8/6 300 м
[Sc Ac trans Ci fib]
+17.0 +9.3 60 +17 +18 1012.1 1008.2 +5.4 +17.3
21 18.07 З 6 24 км 8/8 600 м
[]
+13.0 +7.5 69 +11 +11 1013.8 1009.8
00 19.07 З 7 24 км 5/1 1000 м
[Sc Ac trans Ci fib]
+14.5 +8.2 66 +13 +13 1014.8 1010.8 +5.4 +17.8
03 19.07 С 7 24 км 8/8 300 м
[]
+11.2 +8.1 81 +8 +8 1016.8 1012.8
06 19.07 С 6 24 км 9/8 300 м
[Sc Ci fib]
+8.3 +4.3 76 +5 +5 1018.9 1014.9 +5.4 +17.8 31

 

Местоположение метеостанции Cambridge Bay Arpt (Канада): широта 69.10 долгота -105.10 высота над уровнем моря 27 м.

В архиве по умолчанию представлена погода в Cambridge Bay Arpt за последнюю неделю. Архивные данные за месяц целиком и за предыдущие месяцы, начиная с января 2011 года, Вы можете получить, выбрав интересующий диапазон дат из раскрывающегося списка и нажав кнопку "Ввод!".


*Определитесь, кто Вы:
робот инопланетянин человек

Внимание! Время в таблицах - всемирное. Для получения местного времени необходимо прибавить поправку, которая в Cambridge Bay Arpt равна -7 ч.

Смотрите также архив погоды в соседних городах и на ближайших метеорологических станциях:

Погода в Cape Peel West (Канада) (108 км)
Погода в Hat Island (Канада) (223 км)
Погода в Gjoa Haven Climate (Канада) (374 км)
Погода в Kugluktuk (Канада) (432 км)
Погода в Kugluktuk Airport (Канада) (432 км)
Погода в Lupin (Канада) (452 км)
Погода в Lupin (maps) (Канада) (452 км)
Погода в Spence bay (Канада) (454 км)
Погода в Robertson Lake (Канада) (460 км)
Погода в Shepherd Bay (Канада) (466 км)

Пояснения к столбцам:

Ветер - указаны скорость ветра в м/с - средняя за 10 мин, порывы в срок и между сроками (в фигурных скобках) и направление, откуда дует ветер: С - северный, СВ - северо-восточный, В - восточный, ЮВ - юго-восточный, Ю - южный, ЮЗ - юго-западный, З - западный, СЗ - северо-западный.
Видимость - горизонтальная дальность видимости в метрах или километрах. При видимости от 1 до 10 км при отсутствии осадков обычно наблюдается дымка, при ухудшении видимости до 1 км и менее - туман. В сухую погоду видимость может ухудшаться дымом, пылью или мглою.
Явления - указаны атмосферные явления, наблюдавшиеся в срок или в последний час перед сроком; фигурными скобками обозначены явления, наблюдавшиеся между сроками (за 1-3 часа до срока); квадратными скобками обозначены град или гололедные отложения с указанием их диаметра в мм.
Облачность - указаны через наклонную черту общая и нижняя облачность в баллах и высота нижней границы облаков в метрах; квадратными скобками обозначены формы облаков: Ci - перистые, Cs - перисто-слоистые, Cc - перисто-кучевые, Ac - высококучевые, As - высокослоистые, Sc - слоисто-кучевые, Ns - слоисто-дождевые, Cu - кучевые, Cb - кучево-дождевые. Подробнее классификацию облаков см. в Атласе облаков (PDF).
T - Температура воздуха - температура, измеренная на высоте 2 м над землей.
Td - Температура точки росы - температура, при понижении до которой содержащийся в воздухе водяной пар достигнет насыщения.
f - Относительная влажность воздуха - влажноcть воздуха, измеренная на высоте 2 м над землей.
Te - Эффективная температура - температура, которую ощущает одетый по сезону человек в тени. Характеристика душности погоды. При расчете учитывается влияние влажности воздуха и скорости ветра на теплоощущения человека.
Tes - Эффективная температура на солнце - температура, которую ощущает человек, с поправкой на солнечный нагрев. Характеристика знойности погоды. Зависит от высоты солнца над горизонтом, облачности и скорости ветра. Ночью, в пасмурную погоду, а также при ветре 12 м/с и более поправка равна нулю.
P - Атмосферное давление - приведенное к уровню моря атмосферное давление.
Po - Атмосферное давление - измеренное на уровне метеостанции атмосферное давление.
Tmin - Минимальная температура - минимум температуры воздуха на высоте 2 м над землей.
Tmax - Максимальная температура - максимум температуры воздуха на высоте 2 м над землей.
R - Количество осадков - Количество выпавших осадков за период времени, мм. При наведении курсора мыши на число - период времени, за который выпало указанное количество осадков.
R24 - Количество осадков - Количество выпавших осадков за 24 часа, мм.
S - Снежный покров - Высота снежного покрова, см. При наведении курсора мыши на число - состояние снежного покрова и степень покрытия местности в баллах.